Other Surface Observations
Issued by NWS

Home | Current Version | Previous Version | Text Only | Print | Product List | Glossary On
Versions: 1 2 3 4 5 6 7 8 9 10 11 12 13 14 15 16 17 18 19 20 21 22 23 24 25 26 27 28 29 30 31 32 33 34 35 36 37 38 39 40 41 42 43 44 45 46 47 48 49 50
000
SXUS52 KTAE 192006
OSOTAE
OSOTAE
North Florida/South Alabama/Southwest Georgia Weather Roundup
National Weather Service Tallahassee Florida
300 PM EST SUN NOV 19 2017

Note: "fair" indicates few or no clouds below 12,000 feet with no
significant weather and/or obstructions to visibility.

!FLZ017-115-028-034-025-192100
...North Florida...

CITY           SKY/WX    TMP DP  RH WIND       PRES   REMARKS
TALLAHASSEE    MOSUNNY   66  34  30 N16       29.97F
APALACHICOLA   SUNNY     69  37  30 N9        29.97F
PERRY          SUNNY     68  41  36 N14       29.95F
CROSS CITY     SUNNY     70  50  49 NW9       29.97S
JACKSONVILLE   PTSUNNY   70  46  42 NW9       29.90S
$$

!FLZ112-006-005-002-011-192100
...Florida Panhandle...

CITY           SKY/WX    TMP DP  RH WIND       PRES   REMARKS
MARIANNA       SUNNY     66  31  27 N9G18     30.00F
BONIFAY        NOT AVBL
PANAMA CITY NW FAIR      64  35  34 NW14      30.00F
TYNDALL AFB    SUNNY     66  37  34 N10G17    30.00S
TYND DRONE APT FAIR      65  36  33 N16       29.99F
DE FUNIAK SPR  FAIR      60  32  34 N14G21    30.03S
EGLIN AFB      MOSUNNY   64  32  30 N13       30.03S
DESTIN         SUNNY     66  34  30 N14       30.03F
HURLBURT       SUNNY     63  34  34 N18       30.02F
CRESTVIEW      SUNNY     62  34  35 N13G21    30.05F
PENSACOLA      SUNNY     63  32  31 N21       30.05F
$$

!ALZ063-066-192100
...South Alabama...

CITY           SKY/WX    TMP DP  RH WIND       PRES   REMARKS
DOTHAN         SUNNY     62  35  36 N13       30.04F
OZARK CAIRNS   SUNNY     61  33  35 NW14      30.02F
FT RUCKER HELI NOT AVBL
RUCKER HELI 3    N/A     60  34  38 N13       30.02F
RUCKER HELI 2    N/A     62  34  35 N9        30.01
FLORALA APT    SUNNY     61  33  35 N8        30.06F
ANDALUSIA      SUNNY     62  33  33 NW15      30.05S
TROY           SUNNY     59  34  39 NW16      30.06S
EUFALA         FAIR      62  35  36 MISG      30.01F
MOBILE         SUNNY     61  32  33 N17       30.10F
$$

!GAZ120>161-192100
...Southwest and South Central Georgia...

CITY           SKY/WX    TMP DP  RH WIND       PRES   REMARKS
THOMASVILLE    FAIR      64  32  29 N9        29.98F
BAINBRIDGE     SUNNY     64  39  39 NW12      30.00S
MOODY AFB      SUNNY     65  35  33 NW10      29.94F
VALDOSTA       SUNNY     65  37  35 N8G20     29.95F
MOULTRIE       SUNNY     63  34  34 N8        29.98S
BLAKELY        SUNNY     63  32  31 N9G17     30.01F
ALBANY         SUNNY     64  34  32 NW10      30.01F
TIFTON         FAIR      62  33  34 N15G22    29.96F
FITZGERALD     FAIR      63  37  37 NW12G18   29.99S
CORDELE        FAIR      65  29  25 N13       29.99F
AMERICUS       FAIR      59  23  25 NW10G17   30.01S
HOMERVILLE     FAIR      64  36  34 NW10G16   29.95S
$$

!GMZ750-755-770-775-192100
...Coastal and Buoy Obs...

STATION/POSITION TIME  TEMP    WIND        PRES    VSBY  WAVE
                       AIR SEA DIR/SP/G                  HT/PER
                 (UTC) (F)     (DEG/KT/KT) (MB)    (MI)  (FT/S)
KEATON BEACH     2000   66     340/  9/ 12 1013.7F
CEDAR KEY        1900   67     310/  8/ 10 1013.2F
C TOWER          2000   63     360/ 12/ 14 1015.1F
APALACHICOLA BUO 1850   64 76  350/ 14/ 21 1014.3          5/ 7
PANAMA CITY BUOY 1850   63 78  350/ 23/ 27 1015.3          8/ 7
MOBILE BUOY      1950   61 79  360/ 17/ 23 1018.4F         6/ 6
ORANGE BCH AL BU NOT AVBL
$$




USA.gov is the U.S. government's official web portal to all federal, state and local government web resources and services.